Location: Poughquag
(41.6090°N, 73.6820°W)
Time: 09:23:29
(UTC-05:00)

Vanguard 1 - Pass Details

Date: 04 December 2023
Orbit: 653 x 3826 km, 34.3° (Epoch: 25 February)

Event Time Altitude Azimuth Distance (km) Brightness Sun altitude
Rises 18:10:01 0° 240° (WSW) 5,663 15.4 -19.1°
Reaches altitude 10° 18:13:10 10° 237° (WSW) 5,001 14.7 -19.7°
Maximum altitude 18:28:54 63° 161° (SSE) 3,627 12.7 -22.6°
Enters shadow 18:42:44 30° 95° (E) 5,350 13.2 -25.1°
Drops below altitude 10° 18:51:46 10° 88° (E) 6,914 - -26.8°
Sets 18:57:04 0° 86° (E) 7,843 - -27.8°
